Details From UBBB - Heydar Aliyev
To UBBG - Ganja
Flight Number -
Tags Generated
Created
Modified
Stats Distance 171 nm / 316 km
Max Altitude 0 ft / 0 m
Waypoints 2
Social Downloads 0
Likes 0
Share VATSIM

Download

Looking for another format? Having issues loading an existing format? Contact us
Advertisement - Login to hide

Notes

Generated

Route

UBBB UBBG

ID Type Via Altitude Latitude Longitude Leg Dist Tot Dist Heading (true) Name
O UBBB APT - 0 ft / 0 m 40.48000˚ 50.03500˚ - 0 nm - -
O UBBG APT - 0 ft / 0 m 40.74464˚ 46.30592˚ 170 nm 170 nm 277° / 274° -

Altitude Profile

Advertisement - Login to hide

Weather


0- 5 10 15 20 25 30 35+ Temperature / ° C

Clouds and Precipitation
Forecast for 2017-12-13 18:00 UTC. Updated 2 hours ago

Ground ~20,000 ft ~40,000 ft Winds

UBBB

Details ICAO UBBB (GYD)
Name HEYDAR ALIYEV
Region Azerbiajan
Timezone Asia/Baku (UTC+4.0)
Stats Elevation 10 ft / 3 m (AMSL)
Location 40.470000° 50.052083°
Runways 2
Magnetic Variation 6.234° E

METAR

UBBB 131700Z 11008KT 9999 OVC044 08/04 Q1026 R88/CLRD// NOSIG

Decode

TAF

TAF TAF UBBB 131111Z 1312/1412 10014KT 9999 BKN030 BKN100 TX09/1312Z TN06/1402Z TEMPO 1312/1320 SCT012 BECMG 1320/1322 13016KT TEMPO 1322/1408 4000 -RA BR SCT008 OVC020

Decode

Departure Runways

ID Width Length Bearing (true) Bearing (mag) Surface Threshold Offset Overrun Length
16 197 ft / 60 m 9,110 ft / 2,777 m 159.17° 152.94° Asphalt 0 ft / 0 m 1,312 ft / 400 m
18 167 ft / 51 m 10,947 ft / 3,337 m 180.00° 173.77° Concrete 0 ft / 0 m 1,312 ft / 400 m
34 197 ft / 60 m 9,110 ft / 2,777 m 339.18° 332.95° Asphalt 0 ft / 0 m 656 ft / 200 m
36 167 ft / 51 m 10,947 ft / 3,337 m 0.00° 353.77° Concrete 444 ft / 135 m 541 ft / 165 m

UBBG

Details ICAO UBBG (KVD)
Name GANJA
Region Azerbiajan
Timezone Asia/Baku (UTC+4.0)
Stats Elevation 1,083 ft / 330 m (AMSL)
Location 40.737676° 46.317582°
Runways 1
Magnetic Variation 6.372° E

METAR

UBBG 131700Z 09004KT 9999 SCT016 BKN050 05/02 Q1025 R12/CLRD// NOSIG

Decode

TAF

Not found

Destination Runways

ID Width Length Bearing (true) Bearing (mag) Surface Threshold Offset Overrun Length
12 144 ft / 44 m 8,211 ft / 2,503 m 128.25° 121.88° Concrete 0 ft / 0 m 0 ft / 0 m
30 144 ft / 44 m 8,211 ft / 2,503 m 308.26° 301.89° Concrete 0 ft / 0 m 1,630 ft / 497 m

Popular Alternatives